Regional Weather Roundup
Issued by NWS Little Rock, AR

Home | Current Version | Previous Version | Graphics & Text | Print | Product List | Glossary On
Versions: 1 2 3 4 5 6 7 8 9 10 11 12 13 14 15 16 17 18 19 20 21 22 23 24 25 26 27 28 29 30 31 32 33 34 35 36 37 38 39 40 41 42 43 44 45 46 47 48 49 50
000
ASUS44 KLZK 261105
RWRLZK

WEATHER ROUNDUP FOR ARKANSAS
NATIONAL WEATHER SERVICE LITTLE ROCK AR
600 AM CDT MON SEP 26 2016

NOTE: "FAIR" INDICATES FEW OR NO CLOUDS BELOW 12,000 FEET WITH NO
SIGNIFICANT WEATHER AND/OR OBSTRUCTIONS TO VISIBILITY.

ARZ001-003-010-029-261200-
NORTHWEST ARKANSAS

CITY           SKY/WX    TMP DP  RH WIND       PRES   REMARKS
FAYETTEVILLE   CLOUDY    58  58 100 NE3       30.21R
FORT SMITH     LGT RAIN  65  57  75 N8        30.17R
HARRISON       LGT RAIN  58  57  97 NW5       30.21R
BENTONVILLE    CLOUDY    59  54  82 N5        30.22S
ROGERS         CLOUDY    58  57  97 N3        30.23R
SILOAM SPGS    CLOUDY   N/A N/A N/A N6          N/A
HIGHFILL       CLOUDY    59  58  96 N5        30.21S
SPRINGDALE     CLOUDY    59  59 100 NE3       30.23
$$

ARZ004-005-016-261200-
NORTH CENTRAL ARKANSAS

CITY           SKY/WX    TMP DP  RH WIND       PRES   REMARKS
BATESVILLE     CLOUDY    64  54  68 N5        30.15R
FLIPPIN        CLOUDY    61  54  77 N6        30.17R
MTN HOME       LGT RAIN  59  56  89 CALM      30.18R
$$

ARZ040-041-261200-
WEST CENTRAL ARKANSAS

CITY           SKY/WX    TMP DP  RH WIND       PRES   REMARKS
MENA           CLOUDY    70  66  88 CALM      30.14R
MOUNT IDA      CLOUDY    72  65  78 NW5       30.10R
$$

ARZ009-017-025-026-028-261200-
NORTHEAST ARKANSAS

CITY           SKY/WX    TMP DP  RH WIND       PRES   REMARKS
CORNING          N/A     66  57  72 N10       30.13R
JONESBORO      CLOUDY    68  58  70 N12G20    30.10R
NEWPORT        CLOUDY    66  58  75 N13       30.12R
WALNUT RIDGE   CLOUDY    64  55  72 N9        30.12S
BLYTHEVILLE    TSTM      62  60  93 N15G30    30.11R
$$

ARZ022-023-033-042-044-261200-
CENTRAL ARKANSAS

CITY           SKY/WX    TMP DP  RH WIND       PRES   REMARKS
LITTLE ROCK    MOCLDY    72  62  71 N14       30.09R
JACKSONVILLE   MOCLDY    70  61  71 N12       30.09R
SEARCY         MOCLDY    68  58  70 N15       30.12R
HOT SPRINGS    CLOUDY    72  63  73 N7        30.09R
RUSSELLVILLE   CLOUDY    67  55  65 N16G26    30.13R
$$

ARZ036-261200-
EAST ARKANSAS

CITY           SKY/WX    TMP DP  RH WIND       PRES   REMARKS
WEST MEMPHIS   CLOUDY    73  67  81 N16G23    30.06R
$$

ARZ050-053-066-070-073-261200-
SOUTHWEST ARKANSAS

CITY           SKY/WX    TMP DP  RH WIND       PRES   REMARKS
ARKADELPHIA    FAIR      73  69  87 N6        30.06R
TEXARKANA      CLOUDY    72  69  90 NE3       30.05R
EL DORADO      CLEAR     71  70  96 N6        30.05R
DE QUEEN       PTCLDY    72  66  81 N8        30.05R
$$

ARZ056-057-069-261200-
SOUTHEAST ARKANSAS

CITY           SKY/WX    TMP DP  RH WIND       PRES   REMARKS
PINE BLUFF     PTCLDY    73  69  87 N10       30.06R
STUTTGART      CLOUDY    73  64  73 N15G21    30.07R
MONTICELLO     CLOUDY    75  70  84 VRB3      30.04R

$$





USA.gov is the U.S. government's official web portal to all federal, state and local government web resources and services.